TimeCST,TemperatureF,Dew PointF,Humidity,Sea Level PressureIn,VisibilityMPH,Wind Direction,Wind SpeedMPH,Gust SpeedMPH,PrecipitationIn,Events,Conditions,WindDirDegrees,DateUTC
12:54 AM,28.9,23.0,78,30.11,10.0,ESE,6.9,-,N/A,,Clear,120,2013-03-04 06:54:00
1:54 AM,30.0,23.0,75,30.12,10.0,ESE,5.8,-,N/A,,Clear,120,2013-03-04 07:54:00
2:54 AM,28.9,23.0,78,30.11,10.0,SE,5.8,-,N/A,,Scattered Clouds,140,2013-03-04 08:54:00
3:54 AM,30.0,21.9,72,30.08,10.0,SE,10.4,-,N/A,,Mostly Cloudy,130,2013-03-04 09:54:00
4:54 AM,30.0,23.0,75,30.07,10.0,SE,9.2,-,N/A,,Overcast,130,2013-03-04 10:54:00
6:54 AM,30.0,21.9,72,30.06,10.0,SE,12.7,-,N/A,,Overcast,130,2013-03-04 12:54:00
7:54 AM,30.0,23.0,75,30.05,3.0,SE,17.3,-,0.00,Snow,Light Snow,130,2013-03-04 13:54:00
8:54 AM,32.0,24.1,73,30.05,10.0,ESE,15.0,-,0.00,,Overcast,120,2013-03-04 14:54:00
9:54 AM,33.1,24.1,70,30.03,10.0,ESE,16.1,25.3,0.01,,Overcast,120,2013-03-04 15:54:00
10:54 AM,34.0,25.0,70,30.00,10.0,ESE,21.9,-,N/A,,Overcast,120,2013-03-04 16:54:00
11:54 AM,35.1,25.0,67,29.97,10.0,ESE,19.6,-,N/A,,Overcast,120,2013-03-04 17:54:00
12:54 PM,36.0,26.1,67,29.94,10.0,ESE,20.7,-,N/A,,Mostly Cloudy,110,2013-03-04 18:54:00
1:54 PM,35.1,25.0,67,29.93,10.0,East,17.3,25.3,N/A,,Overcast,100,2013-03-04 19:54:00
2:54 PM,35.1,26.1,70,29.92,10.0,ESE,18.4,-,N/A,,Overcast,120,2013-03-04 20:54:00
3:54 PM,35.1,26.1,70,29.91,10.0,East,19.6,-,N/A,,Overcast,100,2013-03-04 21:54:00
4:54 PM,35.1,27.0,72,29.91,10.0,East,17.3,-,N/A,,Overcast,100,2013-03-04 22:54:00
5:54 PM,34.0,27.0,75,29.91,10.0,East,13.8,-,N/A,,Overcast,90,2013-03-04 23:54:00
6:54 PM,34.0,27.0,75,29.93,10.0,ENE,12.7,-,N/A,,Overcast,70,2013-03-05 00:54:00
7:54 PM,35.1,27.0,72,29.94,10.0,North,-9999.0,-,N/A,,Overcast,0,2013-03-05 01:54:00
8:06 PM,35.6,26.6,70,29.92,10.0,East,13.8,-,N/A,,Overcast,80,2013-03-05 02:06:00
8:54 PM,34.0,28.0,79,29.94,10.0,East,13.8,-,N/A,,Overcast,80,2013-03-05 02:54:00
9:54 PM,35.1,27.0,72,29.92,10.0,East,11.5,-,N/A,,Overcast,80,2013-03-05 03:54:00
10:54 PM,35.1,27.0,72,29.91,10.0,East,12.7,-,N/A,,Overcast,90,2013-03-05 04:54:00
11:54 PM,35.1,28.0,76,29.89,10.0,East,10.4,-,0.00,Rain,Light Rain,90,2013-03-05 05:54:00